Time,TemperatureF,DewpointF,PressureIn,WindDirection,WindDirectionDegrees,WindSpeedMPH,WindSpeedGustMPH,Humidity,HourlyPrecipIn,Conditions,Clouds,dailyrainin,SoftwareType,DateUTC
2013-07-20 00:05:00,59.1,57.0,29.95,NNE,31,0.0,1.0,93,0.00,,,0.00,weatherlink.com 1.10,2013-07-20 07:05:00,
2013-07-20 00:20:00,59.0,57.0,29.95,NNE,31,0.0,3.0,92,0.00,,,0.00,weatherlink.com 1.10,2013-07-20 07:20:00,
2013-07-20 00:35:00,58.9,57.0,29.96,NNE,31,0.0,3.0,92,0.00,,,0.00,weatherlink.com 1.10,2013-07-20 07:35:00,
2013-07-20 00:50:00,58.8,57.0,29.96,NNE,31,0.0,2.0,92,0.00,,,0.00,weatherlink.com 1.10,2013-07-20 07:50:00,
2013-07-20 01:05:00,58.5,56.0,29.96,NNE,31,0.0,3.0,91,0.00,,,0.00,weatherlink.com 1.10,2013-07-20 08:05:00,
2013-07-20 01:20:00,58.2,56.0,29.96,NNE,31,0.0,0.0,92,0.00,,,0.00,weatherlink.com 1.10,2013-07-20 08:20:00,
2013-07-20 01:35:00,57.9,56.0,29.96,NNE,31,0.0,0.0,92,0.00,,,0.00,weatherlink.com 1.10,2013-07-20 08:35:00,
2013-07-20 01:51:00,57.5,55.0,29.95,NNE,31,0.0,2.0,92,0.00,,,0.00,weatherlink.com 1.10,2013-07-20 08:51:00,
2013-07-20 02:06:00,57.3,55.0,29.95,NNE,31,0.0,0.0,92,0.00,,,0.00,weatherlink.com 1.10,2013-07-20 09:06:00,
2013-07-20 02:21:00,57.0,55.0,29.95,NNE,31,0.0,0.0,92,0.00,,,0.00,weatherlink.com 1.10,2013-07-20 09:21:00,
2013-07-20 02:36:00,56.8,55.0,29.95,NNE,31,0.0,0.0,93,0.00,,,0.00,weatherlink.com 1.10,2013-07-20 09:36:00,
2013-07-20 02:51:00,56.8,55.0,29.94,NNE,31,0.0,0.0,93,0.00,,,0.00,weatherlink.com 1.10,2013-07-20 09:51:00,
2013-07-20 03:06:00,56.7,55.0,29.94,NNE,31,0.0,0.0,93,0.00,,,0.00,weatherlink.com 1.10,2013-07-20 10:06:00,
2013-07-20 03:21:00,56.5,55.0,29.94,NNE,31,0.0,0.0,93,0.00,,,0.00,weatherlink.com 1.10,2013-07-20 10:21:00,
2013-07-20 03:36:00,56.4,55.0,29.93,NNE,31,0.0,1.0,93,0.00,,,0.00,weatherlink.com 1.10,2013-07-20 10:36:00,
2013-07-20 03:51:00,56.1,54.0,29.93,NNE,31,0.0,0.0,93,0.00,,,0.00,weatherlink.com 1.10,2013-07-20 10:51:00,
2013-07-20 04:06:00,55.9,54.0,29.93,NNE,31,0.0,0.0,93,0.00,,,0.00,weatherlink.com 1.10,2013-07-20 11:06:00,
2013-07-20 04:21:00,55.7,54.0,29.93,NNE,31,0.0,2.0,93,0.00,,,0.00,weatherlink.com 1.10,2013-07-20 11:21:00,
2013-07-20 04:36:00,55.8,54.0,29.93,NNE,31,0.0,1.0,93,0.00,,,0.00,weatherlink.com 1.10,2013-07-20 11:36:00,
2013-07-20 04:51:00,55.6,54.0,29.93,NNE,31,0.0,1.0,93,0.00,,,0.00,weatherlink.com 1.10,2013-07-20 11:51:00,
2013-07-20 05:06:00,55.5,54.0,29.93,NNE,31,0.0,1.0,93,0.00,,,0.00,weatherlink.com 1.10,2013-07-20 12:06:00,
2013-07-20 05:21:00,55.2,53.0,29.93,NNE,31,0.0,0.0,93,0.00,,,0.00,weatherlink.com 1.10,2013-07-20 12:21:00,
2013-07-20 05:36:00,55.3,54.0,29.94,NNE,31,0.0,3.0,94,0.00,,,0.00,weatherlink.com 1.10,2013-07-20 12:36:00,
2013-07-20 05:51:00,55.4,54.0,29.94,NNE,31,0.0,0.0,94,0.00,,,0.00,weatherlink.com 1.10,2013-07-20 12:51:00,
2013-07-20 06:06:00,55.9,54.0,29.95,NNE,31,0.0,0.0,94,0.00,,,0.00,weatherlink.com 1.10,2013-07-20 13:06:00,
2013-07-20 06:21:00,56.2,55.0,29.96,NNE,31,0.0,0.0,94,0.00,,,0.00,weatherlink.com 1.10,2013-07-20 13:21:00,
2013-07-20 06:36:00,56.8,55.0,29.97,NNE,31,0.0,1.0,94,0.00,,,0.00,weatherlink.com 1.10,2013-07-20 13:36:00,
2013-07-20 06:51:00,57.4,56.0,29.97,NNE,31,0.0,0.0,94,0.00,,,0.00,weatherlink.com 1.10,2013-07-20 13:51:00,
2013-07-20 07:06:00,58.2,57.0,29.96,NNE,31,0.0,0.0,94,0.00,,,0.00,weatherlink.com 1.10,2013-07-20 14:06:00,
2013-07-20 07:21:00,59.3,57.0,29.97,NNE,31,0.0,2.0,93,0.00,,,0.00,weatherlink.com 1.10,2013-07-20 14:21:00,
2013-07-20 07:36:00,60.2,58.0,29.98,NNE,31,0.0,1.0,92,0.00,,,0.00,weatherlink.com 1.10,2013-07-20 14:36:00,
2013-07-20 07:51:00,61.2,58.0,29.98,NNE,31,0.0,0.0,90,0.00,,,0.00,weatherlink.com 1.10,2013-07-20 14:51:00,
2013-07-20 08:06:00,62.3,59.0,29.98,NNE,31,0.0,1.0,90,0.00,,,0.00,weatherlink.com 1.10,2013-07-20 15:06:00,
2013-07-20 08:21:00,63.2,59.0,29.99,NNE,31,0.0,1.0,87,0.00,,,0.00,weatherlink.com 1.10,2013-07-20 15:21:00,
2013-07-20 08:36:00,64.0,59.0,29.99,NNE,31,0.0,1.0,84,0.00,,,0.00,weatherlink.com 1.10,2013-07-20 15:36:00,
2013-07-20 08:51:00,64.8,58.0,29.98,NNE,31,0.0,2.0,79,0.00,,,0.00,weatherlink.com 1.10,2013-07-20 15:51:00,
2013-07-20 09:06:00,66.2,58.0,29.98,NNE,31,1.0,3.0,75,0.00,,,0.00,weatherlink.com 1.10,2013-07-20 16:06:00,
2013-07-20 09:21:00,68.3,59.0,29.98,South,170,2.0,3.0,71,0.00,,,0.00,weatherlink.com 1.10,2013-07-20 16:21:00,
2013-07-20 09:37:00,69.6,59.0,29.98,WSW,255,1.0,4.0,68,0.00,,,0.00,weatherlink.com 1.10,2013-07-20 16:37:00,
2013-07-20 09:52:00,70.6,59.0,29.98,West,261,4.0,4.0,67,0.00,,,0.00,weatherlink.com 1.10,2013-07-20 16:52:00,
2013-07-20 10:07:00,70.9,58.0,29.98,SW,221,2.0,5.0,65,0.00,,,0.00,weatherlink.com 1.10,2013-07-20 17:07:00,
2013-07-20 10:22:00,71.8,58.0,29.97,ESE,110,0.0,5.0,63,0.00,,,0.00,weatherlink.com 1.10,2013-07-20 17:22:00,
2013-07-20 10:37:00,72.7,59.0,29.97,SSE,158,0.0,4.0,62,0.00,,,0.00,weatherlink.com 1.10,2013-07-20 17:37:00,
2013-07-20 10:52:00,73.4,59.0,29.97,South,169,3.0,4.0,60,0.00,,,0.00,weatherlink.com 1.10,2013-07-20 17:52:00,
2013-07-20 11:07:00,74.2,59.0,29.96,WSW,247,1.0,5.0,59,0.00,,,0.00,weatherlink.com 1.10,2013-07-20 18:07:00,
2013-07-20 11:37:00,74.3,59.0,29.96,SSW,203,0.0,3.0,59,0.00,,,0.00,weatherlink.com 1.10,2013-07-20 18:37:00,
2013-07-20 11:52:00,74.6,59.0,29.95,SSW,203,1.0,3.0,59,0.00,,,0.00,weatherlink.com 1.10,2013-07-20 18:52:00,
2013-07-20 12:07:00,73.6,59.0,29.94,West,267,0.0,5.0,60,0.00,,,0.00,weatherlink.com 1.10,2013-07-20 19:07:00,
2013-07-20 12:22:00,73.3,60.0,29.94,West,267,0.0,3.0,63,0.00,,,0.00,weatherlink.com 1.10,2013-07-20 19:22:00,
2013-07-20 12:37:00,73.8,61.0,29.93,WSW,239,1.0,3.0,64,0.00,,,0.00,weatherlink.com 1.10,2013-07-20 19:37:00,
2013-07-20 12:52:00,72.4,60.0,29.93,SSW,196,0.0,3.0,66,0.00,,,0.00,weatherlink.com 1.10,2013-07-20 19:52:00,
2013-07-20 13:07:00,70.7,61.0,29.93,SSW,196,2.0,9.0,71,0.00,,,0.00,weatherlink.com 1.10,2013-07-20 20:07:00,
2013-07-20 13:22:00,69.8,61.0,29.93,SSW,196,0.0,2.0,74,0.00,,,0.00,weatherlink.com 1.10,2013-07-20 20:22:00,
2013-07-20 13:37:00,69.4,61.0,29.92,SSW,196,0.0,2.0,75,0.01,,,0.01,weatherlink.com 1.10,2013-07-20 20:37:00,
2013-07-20 13:52:00,69.1,61.0,29.91,SSW,196,0.0,2.0,76,0.01,,,0.01,weatherlink.com 1.10,2013-07-20 20:52:00,
2013-07-20 14:07:00,72.1,61.0,29.90,SSW,198,0.0,3.0,68,0.01,,,0.01,weatherlink.com 1.10,2013-07-20 21:07:00,
2013-07-20 14:22:00,75.0,62.0,29.90,SW,222,3.0,5.0,64,0.01,,,0.01,weatherlink.com 1.10,2013-07-20 21:22:00,
2013-07-20 14:37:00,75.9,62.0,29.89,SSW,202,0.0,8.0,62,0.00,,,0.01,weatherlink.com 1.10,2013-07-20 21:37:00,
2013-07-20 14:52:00,74.5,61.0,29.89,SSW,194,1.0,4.0,64,0.00,,,0.01,weatherlink.com 1.10,2013-07-20 21:52:00,
2013-07-20 15:07:00,72.9,61.0,29.89,South,174,0.0,5.0,67,0.00,,,0.01,weatherlink.com 1.10,2013-07-20 22:07:00,
2013-07-20 15:22:00,72.0,61.0,29.88,South,176,0.0,6.0,68,0.00,,,0.01,weatherlink.com 1.10,2013-07-20 22:22:00,
2013-07-20 15:52:00,71.6,61.0,29.87,South,176,0.0,1.0,70,0.00,,,0.01,weatherlink.com 1.10,2013-07-20 22:52:00,
2013-07-20 16:07:00,71.3,61.0,29.88,South,176,0.0,2.0,70,0.00,,,0.01,weatherlink.com 1.10,2013-07-20 23:07:00,
2013-07-20 16:22:00,70.8,61.0,29.88,South,176,0.0,2.0,71,0.00,,,0.01,weatherlink.com 1.10,2013-07-20 23:22:00,
2013-07-20 16:37:00,70.6,61.0,29.88,South,176,0.0,0.0,71,0.00,,,0.01,weatherlink.com 1.10,2013-07-20 23:37:00,
2013-07-20 16:52:00,70.1,62.0,29.88,South,176,0.0,1.0,75,0.00,,,0.01,weatherlink.com 1.10,2013-07-20 23:52:00,
2013-07-20 17:22:00,69.3,63.0,29.86,South,176,0.0,1.0,79,0.00,,,0.01,weatherlink.com 1.10,2013-07-21 00:22:00,
2013-07-20 17:37:00,69.6,62.0,29.85,SW,216,0.0,3.0,76,0.00,,,0.01,weatherlink.com 1.10,2013-07-21 00:37:00,
2013-07-20 17:52:00,70.4,62.0,29.85,South,186,1.0,5.0,74,0.00,,,0.01,weatherlink.com 1.10,2013-07-21 00:52:00,
2013-07-20 18:07:00,70.5,62.0,29.86,South,185,1.0,5.0,74,0.00,,,0.01,weatherlink.com 1.10,2013-07-21 01:07:00,
2013-07-20 18:22:00,70.6,62.0,29.88,South,185,0.0,4.0,74,0.00,,,0.01,weatherlink.com 1.10,2013-07-21 01:22:00,
2013-07-20 18:38:00,70.3,61.0,29.87,South,185,0.0,1.0,73,0.00,,,0.01,weatherlink.com 1.10,2013-07-21 01:38:00,
2013-07-20 19:08:00,69.5,62.0,29.88,South,185,0.0,1.0,76,0.00,,,0.01,weatherlink.com 1.10,2013-07-21 02:08:00,
2013-07-20 19:23:00,69.2,62.0,29.89,South,185,0.0,0.0,77,0.00,,,0.01,weatherlink.com 1.10,2013-07-21 02:23:00,
2013-07-20 19:38:00,68.7,61.0,29.90,SW,214,0.0,0.0,75,0.00,,,0.01,weatherlink.com 1.10,2013-07-21 02:38:00,
2013-07-20 19:53:00,68.2,61.0,29.91,SW,214,0.0,1.0,79,0.00,,,0.01,weatherlink.com 1.10,2013-07-21 02:53:00,
2013-07-20 20:08:00,67.0,60.0,29.91,South,175,0.0,5.0,78,0.00,,,0.01,weatherlink.com 1.10,2013-07-21 03:08:00,
2013-07-20 20:23:00,65.2,60.0,29.93,South,176,0.0,6.0,82,0.00,,,0.01,weatherlink.com 1.10,2013-07-21 03:23:00,
2013-07-20 20:38:00,64.4,60.0,29.95,South,176,0.0,1.0,85,0.00,,,0.01,weatherlink.com 1.10,2013-07-21 03:38:00,
2013-07-20 20:53:00,64.5,60.0,29.96,SSE,149,5.0,5.0,84,0.00,,,0.01,weatherlink.com 1.10,2013-07-21 03:53:00,
2013-07-20 21:08:00,63.8,57.0,29.97,North,4,0.0,3.0,78,0.00,,,0.01,weatherlink.com 1.10,2013-07-21 04:08:00,
2013-07-20 21:23:00,62.9,58.0,29.98,North,359,0.0,2.0,83,0.00,,,0.01,weatherlink.com 1.10,2013-07-21 04:23:00,
2013-07-20 21:38:00,62.0,58.0,29.98,North,359,0.0,0.0,85,0.01,,,0.02,weatherlink.com 1.10,2013-07-21 04:38:00,
2013-07-20 21:53:00,61.4,58.0,29.98,North,359,0.0,0.0,88,0.02,,,0.03,weatherlink.com 1.10,2013-07-21 04:53:00,
2013-07-20 22:08:00,60.9,58.0,29.97,North,359,0.0,0.0,89,0.03,,,0.04,weatherlink.com 1.10,2013-07-21 05:08:00,
2013-07-20 22:23:00,60.7,58.0,29.97,North,359,0.0,0.0,91,0.04,,,0.05,weatherlink.com 1.10,2013-07-21 05:23:00,
2013-07-20 22:38:00,60.5,58.0,29.95,North,359,0.0,3.0,91,0.05,,,0.07,weatherlink.com 1.10,2013-07-21 05:38:00,
2013-07-20 22:53:00,60.5,58.0,29.95,North,359,0.0,1.0,92,0.06,,,0.09,weatherlink.com 1.10,2013-07-21 05:53:00,
2013-07-20 23:08:00,60.4,58.0,29.95,North,359,1.0,1.0,92,0.06,,,0.10,weatherlink.com 1.10,2013-07-21 06:08:00,
2013-07-20 23:23:00,60.2,58.0,29.96,North,359,1.0,2.0,92,0.05,,,0.10,weatherlink.com 1.10,2013-07-21 06:23:00,
2013-07-20 23:38:00,60.4,58.0,29.96,North,9,0.0,4.0,93,0.04,,,0.12,weatherlink.com 1.10,2013-07-21 06:38:00,
2013-07-20 23:53:00,60.0,57.0,29.95,NNE,27,0.0,10.0,91,0.04,,,0.13,weatherlink.com 1.10,2013-07-21 06:53:00,